Simultaneous Nadir Overpasses (SNOs) Predictions

Prediction of SNOs near US between AQUA and NPP Satellite Orbit:

Table of predicted SNOs near US for the next 10.0 days since TLE Epoch: 8/2/2019
Index Date (AQUA) Time (AQUA) AQUA Lat,Lon Date (NPP) Time (NPP) NPP Lat,Lon Distance(km) Time Diff (sec)
1 08/05/2019 07:18:38 49.93, -75.97 08/05/2019 07:20:32 50.37, -78.20 166.44 114
2 08/05/2019 08:57:31 49.94,-100.68 08/05/2019 09:02:00 50.48,-103.52 210.88 269
3 08/07/2019 18:16:46 49.95, -80.15 08/07/2019 18:10:48 49.64, -81.77 121.57 358
4 08/07/2019 19:55:39 49.95,-104.86 08/07/2019 19:52:17 49.58,-107.12 166.83 202
5 08/07/2019 21:30:51 36.78,-125.00 08/07/2019 21:29:57 36.26,-127.63 242.37 54
6 08/10/2019 09:23:22 23.60,-113.38 08/10/2019 09:16:01 23.72,-113.86 50.07 441




NCC Satellite Simultaneous Nadir Overpasses (SNOs) Prediction Service
